Weather History for Adrian, MI

Change the Weather History Date:

Friday, November 9, 2012

  Actual Average Record
Temperature  
Mean Temperature 40 °F -  
Max Temperature 55 °F 52 °F 73 °F (1999)
Min Temperature 26 °F 33 °F 12 °F (1991)
Degree Days  
Heating Degree Days 24    
Moisture  
Dew Point 33 °F    
Average Humidity 80    
Maximum Humidity 100    
Minimum Humidity 53    
Precipitation  
Precipitation 0.07 in - - ()
Sea Level Pressure  
Sea Level Pressure 30.18 in    
Wind  
Wind Speed 2 mph (SSW)    
Max Wind Speed 12 mph    
Max Gust Speed 21 mph    
Visibility 5 miles    
Events      
Averages and records for this station are not official NWS values.
T = Trace of Precipitation, MM = Missing Value Source: NWS Daily Summary

Daily Weather History Graph

Daily Weather History Graph

Search for Another Location

Airport:

Trip Planner

Search our weather history database for the weather conditions in past years. The results will help you decide how hot, cold, wet, or windy it might be!

Date:

Astronomy

Nov. 09, 2012 Rise Set
Actual Time 7:19 AM EST 5:20 PM EST
Civil Twilight 6:49 AM EST 5:50 PM EST
Nautical Twilight 6:16 AM EST 6:23 PM EST
Astronomical Twilight 5:43 AM EST 6:56 PM EST
Moon 2:12 AM EST (11/9) 2:37 PM EST (11/9)
Length of Visible Light 11h 00m
Length of Day
10h 01m
Waning Crescent, 23% of the Moon is Illuminated
Nov 9
Waning Crescent
Nov 13
New
Nov 20
First Quarter
Nov 28
Full
Dec 6
Last Quarter

Hourly Weather History & Observations

Time (EST) Temp. Windchill Dew Point Humidity Pressure Visibility Wind Dir Wind Speed Gust Speed Precip Events Conditions
12:53 AM 30.9 °F - 27.0 °F 85% 30.18 in 6.0 mi Calm Calm - N/A   Clear
1:53 AM 30.0 °F - 27.0 °F 88% 30.19 in 4.0 mi Calm Calm - N/A   Clear
2:53 AM 30.0 °F 26.5 °F 28.0 °F 92% 30.20 in 4.0 mi WSW 3.5 mph - N/A   Clear
3:53 AM 28.9 °F - 28.0 °F 96% 30.20 in 3.0 mi Calm Calm - N/A   Clear
4:10 AM 26.6 °F - 26.6 °F 100% 30.18 in 3.0 mi Calm Calm - N/A   Clear
4:17 AM 28.4 °F - 26.6 °F 93% 30.18 in 2.5 mi Calm Calm - N/A   Clear
4:53 AM 28.9 °F - 27.0 °F 92% 30.22 in 2.5 mi Calm Calm - N/A   Clear
5:53 AM 28.0 °F - 26.1 °F 92% 30.22 in 1.8 mi Calm Calm - N/A   Scattered Clouds
6:03 AM 28.4 °F - 26.6 °F 93% 30.19 in 1.5 mi Calm Calm - N/A   Partly Cloudy
6:10 AM 28.4 °F - 26.6 °F 93% 30.19 in 1.8 mi Calm Calm - N/A   Partly Cloudy
6:41 AM 28.4 °F - 26.6 °F 93% 30.19 in 1.8 mi Calm Calm - N/A   Partly Cloudy
6:53 AM 28.0 °F - 27.0 °F 96% 30.22 in 1.8 mi Calm Calm - N/A   Mostly Cloudy
7:12 AM 28.4 °F - 26.6 °F 93% 30.19 in 1.5 mi Calm Calm - N/A   Scattered Clouds
7:53 AM 28.9 °F - 28.0 °F 96% 30.24 in 1.0 mi Calm Calm - N/A   Partly Cloudy
8:53 AM 33.1 °F - 30.9 °F 92% 30.25 in 1.5 mi Calm Calm - N/A   Clear
9:11 AM 33.8 °F - 32.0 °F 93% 30.21 in 1.8 mi Calm Calm - N/A   Clear
9:25 AM 35.6 °F 32.8 °F 33.8 °F 93% 30.21 in 2.0 mi SW 3.5 mph - N/A   Clear
9:53 AM 37.9 °F 33.5 °F 34.0 °F 86% 30.24 in 2.5 mi SW 5.8 mph - N/A   Clear
10:01 AM 39.2 °F 35.0 °F 35.6 °F 87% 30.21 in 3.0 mi SW 5.8 mph - N/A   Haze
10:53 AM 45.0 °F 41.2 °F 36.0 °F 71% 30.23 in 4.0 mi SSW 6.9 mph - N/A   Haze
11:53 AM 48.9 °F - 37.0 °F 64% 30.20 in 6.0 mi SW 10.4 mph 20.7 mph N/A   Haze
12:53 PM 52.0 °F - 37.9 °F 59% 30.17 in 7.0 mi SW 6.9 mph - N/A   Clear
1:53 PM 54.0 °F - 37.9 °F 55% 30.15 in 7.0 mi SSW 9.2 mph - N/A   Clear
2:53 PM 55.0 °F - 37.9 °F 53% 30.14 in 8.0 mi SSW 11.5 mph - N/A   Clear
3:53 PM 55.0 °F - 37.9 °F 53% 30.14 in 8.0 mi SSW 10.4 mph - N/A   Clear
4:53 PM 53.1 °F - 37.9 °F 57% 30.12 in 8.0 mi South 8.1 mph - N/A   Overcast
5:53 PM 52.0 °F - 39.0 °F 61% 30.12 in 9.0 mi South 6.9 mph - N/A   Overcast
6:53 PM 51.1 °F - 39.0 °F 63% 30.12 in 9.0 mi South 6.9 mph - N/A   Overcast
7:53 PM 51.1 °F - 37.9 °F 61% 30.11 in 9.0 mi South 6.9 mph - N/A   Overcast
8:53 PM 51.1 °F - 37.9 °F 61% 30.11 in 10.0 mi South 4.6 mph - N/A   Overcast
9:53 PM 51.1 °F - 39.0 °F 63% 30.13 in 10.0 mi South 4.6 mph - N/A   Overcast
10:53 PM 48.0 °F - 44.1 °F 86% 30.13 in 6.0 mi ESE 3.5 mph - 0.07 in   Overcast
11:53 PM 46.9 °F - 45.0 °F 93% 30.14 in 4.0 mi Calm Calm - N/A   Overcast